GFSCGP_sfc_thetae_189.txt.gz
Theta_e
308 302 299 302 305 304 302 301 300 303 306 304 303 304 306 309 310 310 311 312 313 314 316 317 320 326 330 335 334 330 326 326 324 320 318 317 314 316 315 315 315 315 313 313
302 299 304 306 305 303 302 300 299 303 306 304 303 302 306 308 308 310 310 311 312 314 315 316 317 325 330 332 334 328 325 323 323 321 319 318 316 315 314 314 313 313 312 312
298 302 305 301 301 300 300 299 299 299 303 304 302 300 302 306 309 308 309 310 311 312 312 314 316 324 331 331 332 328 325 323 323 322 319 317 317 315 312 312 311 311 311 310
298 302 300 300 299 300 296 301 300 299 298 293 302 293 300 304 305 306 308 308 309 309 311 313 314 323 329 329 331 328 326 323 323 322 318 317 312 310 311 311 311 310 310 309
295 296 295 294 297 299 296 301 299 298 296 295 296 292 297 302 301 304 307 307 307 307 308 310 313 317 327 328 329 327 324 322 321 321 320 317 314 313 312 311 309 309 308 307
297 301 298 296 297 296 297 296 296 296 294 286 293 291 293 297 301 304 305 305 305 306 307 309 312 317 321 327 328 325 322 319 318 318 319 318 315 313 310 309 307 306 306 305
297 297 300 299 294 298 295 293 286 285 286 286 294 292 295 300 301 302 302 303 305 306 307 307 307 311 315 320 321 321 318 315 315 315 315 316 316 314 311 308 306 304 303 303
289 288 296 299 295 293 294 293 286 280 283 286 295 288 293 301 302 303 302 303 304 305 306 306 306 308 310 313 316 316 315 312 312 312 312 313 315 311 308 307 304 302 301 300
289 289 297 298 299 297 293 290 296 289 289 285 288 293 297 300 300 300 301 302 302 303 304 305 307 307 308 310 313 313 313 310 309 309 309 307 308 305 303 303 302 300 297 296
291 285 293 294 297 296 294 297 287 289 279 279 285 288 290 294 297 299 300 301 302 303 303 304 304 305 307 309 312 312 311 308 306 304 303 302 302 302 300 299 298 297 296 296
291 288 287 291 289 288 290 289 289 286 285 281 280 286 296 295 296 296 298 300 300 304 303 304 304 305 306 307 307 305 304 300 300 299 299 298 298 298 297 296 296 296 296 294
290 286 282 285 291 292 290 288 289 282 280 283 281 281 298 297 297 297 297 299 300 303 303 304 304 304 304 303 302 301 299 298 298 297 296 296 296 296 296 295 294 295 293 293
290 285 279 281 286 289 286 288 287 288 288 281 278 282 294 294 295 297 298 298 300 302 303 303 304 304 302 301 300 298 298 297 296 296 295 294 293 293 292 292 293 293 291 290
290 285 281 277 281 286 283 285 288 286 282 282 283 283 288 290 292 295 297 298 300 301 302 304 304 300 303 301 299 298 298 297 296 296 295 294 293 292 291 292 292 291 290 290
288 281 284 284 285 286 285 284 285 283 285 280 283 283 287 289 291 294 296 297 297 298 300 302 303 303 304 301 300 299 298 297 296 295 294 293 292 290 290 289 290 290 290 290
288 280 283 280 284 285 283 286 286 286 286 285 284 284 291 293 294 295 296 295 295 296 298 300 303 304 303 302 300 300 298 297 295 292 290 289 287 288 288 289 290 290 288 288
283 282 279 275 282 283 278 284 285 286 287 287 283 288 292 291 292 294 295 295 296 297 299 300 302 304 304 304 302 301 297 295 291 289 288 288 288 288 288 288 288 288 287 287
281 280 280 276 279 271 283 290 290 287 288 289 289 291 292 293 294 296 298 297 297 298 298 300 301 302 304 307 305 303 298 295 291 288 287 288 288 288 288 288 288 288 288 287
286 283 278 273 275 280 282 286 286 284 285 291 290 292 294 294 295 295 298 299 298 298 299 300 301 302 303 304 307 302 296 294 289 287 286 287 288 288 288 287 287 286 285 285
286 286 281 277 272 271 282 288 291 291 282 292 293 291 292 293 288 292 297 298 298 299 300 300 301 302 303 305 307 300 293 291 288 287 286 286 288 287 286 286 284 285 286 284
280 280 277 277 275 279 286 289 290 279 283 292 293 293 293 292 294 298 298 297 298 298 298 299 300 300 301 303 305 297 292 289 288 287 285 285 285 285 285 285 284 284 283 283
279 278 278 279 275 274 291 289 283 289 294 293 295 295 295 296 297 296 296 297 297 296 297 298 299 299 298 297 296 291 288 287 287 286 285 284 284 285 284 284 284 284 282 280
279 282 280 281 282 288 290 290 294 292 293 294 294 295 295 296 296 296 295 295 296 296 297 299 299 297 296 294 292 287 285 286 285 284 284 284 284 285 284 283 282 281 281 281
285 287 282 283 287 288 290 293 293 292 293 294 295 295 296 295 295 294 294 293 294 297 298 299 298 295 293 293 291 287 286 286 285 284 284 285 284 283 283 282 281 281 281 281
285 286 284 283 286 289 290 293 293 293 295 295 296 296 295 294 293 293 293 293 294 296 297 298 297 295 293 291 290 287 287 287 286 286 285 284 283 283 281 281 281 282 283 283
287 285 283 283 288 288 289 292 293 292 293 294 294 294 295 294 293 294 293 294 295 296 297 298 295 293 290 290 288 288 288 288 287 285 284 284 283 283 282 281 281 283 282 281

GFSCGP_sfc_thetae_192.txt.gz
Theta_e
306 300 297 300 303 302 301 299 298 302 305 303 303 303 305 308 309 309 310 310 311 312 315 317 318 320 323 332 335 331 326 326 324 322 318 316 314 315 314 314 314 314 313 313
300 297 302 305 304 302 301 298 298 302 305 303 302 301 306 308 308 309 309 310 311 312 314 316 317 318 324 331 334 330 326 324 323 322 319 317 315 314 314 313 312 313 312 311
297 300 304 302 301 299 298 297 298 297 301 303 301 298 301 306 308 309 310 311 311 311 312 314 314 316 325 329 333 329 326 324 323 322 320 317 316 314 312 311 310 310 311 311
298 302 300 299 298 300 295 300 299 297 295 291 300 289 298 302 303 306 308 309 310 311 311 311 313 315 328 330 333 328 325 323 322 322 318 315 312 309 310 309 309 309 309 309
295 298 297 295 296 298 295 298 296 296 294 294 294 291 295 300 299 302 305 308 309 309 309 309 311 313 316 330 331 327 324 322 321 320 318 315 312 311 311 309 308 307 307 307
297 301 299 297 298 297 298 294 294 294 293 286 291 291 291 295 298 301 305 307 307 307 308 310 311 314 316 327 329 326 322 321 320 319 317 314 312 311 308 308 305 304 304 304
296 296 300 300 296 298 296 292 284 283 284 283 292 290 293 299 301 303 304 304 306 307 308 308 307 309 313 318 320 322 320 318 318 317 315 313 313 311 309 306 305 303 302 302
287 286 295 300 297 294 294 292 285 278 281 285 292 286 292 300 303 303 304 305 305 305 308 307 307 308 309 314 317 317 315 314 313 312 311 312 312 311 308 307 305 303 302 301
287 287 297 298 299 297 293 289 295 287 288 284 288 291 296 299 300 302 302 303 304 304 305 305 307 308 309 310 313 315 313 310 310 310 310 310 308 307 306 305 303 299 298 298
291 283 292 294 296 296 293 295 285 287 278 276 283 286 287 293 296 300 300 301 304 304 304 304 304 306 307 309 308 312 312 307 305 305 304 303 303 302 300 299 296 296 296 295
289 286 285 290 288 287 289 287 289 287 285 279 278 282 292 293 295 294 296 299 300 303 304 304 304 305 306 306 304 301 300 300 300 300 301 299 298 298 297 296 295 295 295 294
290 286 281 283 290 291 289 286 286 280 279 283 282 281 294 294 293 293 294 298 299 301 303 303 304 304 304 303 302 299 298 297 297 297 298 297 296 296 294 294 294 294 292 292
289 284 278 280 285 289 286 287 288 287 285 280 277 280 294 295 294 295 294 296 298 300 301 304 304 303 301 301 300 299 298 297 297 296 295 295 295 294 293 293 293 292 290 290
289 284 281 276 280 284 282 284 286 285 279 280 281 283 289 290 290 292 295 297 299 299 300 302 301 300 302 301 299 298 297 297 296 295 294 292 292 292 291 291 290 290 290 289
288 280 282 283 284 283 282 283 284 283 284 280 282 283 288 290 291 292 295 296 296 297 299 299 303 302 303 301 300 298 297 296 296 294 293 291 291 291 291 291 290 289 290 289
286 279 281 279 282 282 280 283 283 284 284 284 285 285 291 293 294 292 294 295 295 297 297 298 302 303 303 301 299 298 296 295 296 294 292 292 290 288 287 287 287 288 288 288
283 281 278 274 280 279 275 280 281 284 286 286 281 288 292 290 291 292 294 295 296 297 299 299 301 303 304 302 300 298 297 296 295 292 289 288 287 287 287 288 288 287 287 286
281 280 279 275 277 268 279 285 285 285 287 289 288 290 292 293 294 296 297 296 297 298 299 299 300 301 305 305 301 300 298 295 291 290 288 288 287 286 287 287 286 286 286 285
286 282 277 273 274 277 280 283 283 282 283 288 287 291 292 294 295 293 298 298 298 299 298 299 300 301 302 303 304 299 296 294 291 288 287 287 287 286 286 286 286 286 285 284
286 287 280 277 273 270 280 285 288 287 279 289 291 291 292 293 287 290 296 297 297 298 299 299 300 301 302 303 304 301 295 293 289 288 287 287 286 285 285 285 285 285 285 284
280 281 277 277 275 279 286 288 291 277 280 291 290 290 293 288 294 296 298 297 298 297 297 298 299 299 299 301 303 299 295 292 290 288 287 286 286 286 285 285 285 285 284 283
278 277 277 278 275 273 288 288 282 288 293 293 292 294 293 296 297 297 297 296 296 296 296 297 297 298 297 297 296 292 291 289 288 286 286 285 285 285 285 284 284 284 283 281
277 282 279 280 280 287 290 289 292 293 292 293 293 293 294 292 294 296 295 296 295 296 296 297 297 297 296 295 293 288 286 287 286 285 285 284 285 284 284 283 283 282 281 280
284 287 282 282 285 286 289 291 293 293 293 293 294 294 293 293 295 295 295 294 293 294 296 297 297 296 294 293 291 288 287 286 285 284 284 284 283 283 284 283 283 281 280 280
285 285 283 283 286 287 289 291 292 292 294 293 295 294 295 295 294 294 293 293 293 294 296 297 296 296 293 292 289 287 287 286 284 284 284 284 284 283 282 282 281 281 283 282
286 284 281 281 288 288 288 291 292 291 292 292 292 292 295 295 294 294 294 294 294 295 296 297 296 294 293 290 287 287 287 287 285 284 284 283 282 282 281 280 280 283 283 284

GFSCGP_sfc_thetae_195.txt.gz
Theta_e
300 294 291 293 296 298 297 295 293 296 300 297 296 296 298 300 301 301 301 302 303 304 308 308 310 310 316 332 332 329 326 325 321 319 315 312 313 310 309 311 311 310 309 309
295 292 298 300 300 299 297 294 293 297 300 299 296 296 298 301 302 302 302 302 303 304 306 308 307 307 309 325 330 327 325 323 321 320 317 314 312 308 309 309 308 309 307 307
292 296 301 299 297 296 296 293 293 293 296 296 294 293 295 300 303 305 306 306 306 305 304 306 308 308 312 326 329 326 324 322 321 319 316 313 310 309 306 307 306 306 307 306
293 298 297 296 294 296 291 296 293 292 289 284 293 285 293 296 298 301 301 301 302 302 304 305 306 307 309 324 328 326 322 321 320 318 315 313 311 307 304 306 305 306 306 305
292 294 293 291 294 294 290 294 291 290 286 286 288 285 290 294 294 297 301 302 300 301 302 302 304 307 310 321 325 322 320 320 319 318 317 313 310 308 307 305 304 304 303 304
292 297 294 293 296 295 296 292 291 289 286 279 286 286 287 290 292 297 300 301 301 301 302 303 304 307 314 320 321 320 319 319 319 318 317 313 310 308 306 305 303 301 301 302
291 292 295 297 291 294 292 287 280 279 278 279 288 286 288 293 297 299 299 299 300 301 301 300 301 302 309 312 314 317 317 316 319 318 316 314 311 308 306 304 303 302 301 301
284 282 291 297 293 290 291 288 280 277 276 280 289 282 286 296 299 299 300 300 300 300 300 301 301 301 303 311 312 311 312 312 315 317 315 313 311 309 307 305 303 302 301 301
284 285 293 294 294 293 290 285 290 285 284 279 282 286 291 296 296 297 297 298 298 297 300 300 302 302 304 304 309 310 309 309 310 310 311 311 310 308 306 305 303 301 298 297
287 279 290 292 293 293 289 291 282 284 276 274 279 281 283 289 292 294 294 296 297 299 300 301 300 303 302 302 301 301 303 303 304 305 307 305 305 305 302 300 298 297 296 295
288 282 283 288 286 284 285 284 286 285 282 275 275 278 290 291 292 291 292 295 297 298 299 301 302 301 300 300 299 298 299 299 299 300 300 301 302 300 300 298 296 296 295 294
288 285 278 282 288 290 287 283 283 273 273 278 276 278 290 291 293 293 294 296 297 298 298 300 302 301 300 299 298 296 295 296 297 299 298 297 297 297 296 295 295 294 293 293
287 282 275 277 282 287 283 285 284 282 280 275 273 274 290 292 291 292 291 294 296 298 299 300 302 301 299 298 297 295 294 294 296 296 296 295 294 294 294 293 293 293 291 290
289 283 279 274 278 282 279 281 282 281 275 276 276 278 284 287 288 291 291 292 293 296 299 298 300 298 298 297 297 295 294 293 293 295 294 293 293 293 292 291 290 290 289 288
286 278 281 281 282 281 280 280 281 279 279 275 278 278 282 285 287 290 293 294 294 294 296 298 298 299 297 297 297 296 295 294 293 293 292 291 291 291 290 289 289 289 288 287
284 275 279 276 280 280 277 279 279 279 280 279 280 279 286 289 291 291 293 294 293 294 296 297 298 301 298 298 296 295 294 294 294 292 291 291 290 290 289 288 287 287 287 287
279 276 274 271 277 277 271 277 278 279 281 280 276 281 288 288 289 291 291 293 293 294 297 300 301 301 300 299 297 294 294 294 293 292 291 290 289 287 287 287 287 286 286 286
278 277 274 271 274 265 276 282 282 280 282 283 283 286 288 288 291 292 294 293 296 298 298 299 299 302 303 300 298 295 294 293 293 291 289 289 288 287 287 287 287 286 286 285
282 278 271 269 270 274 277 281 281 279 279 284 285 286 288 291 293 292 296 298 297 296 296 298 298 297 298 300 298 295 294 292 291 289 288 288 288 286 286 285 285 285 285 284
283 282 276 275 271 268 277 284 287 288 276 288 289 288 288 290 282 287 294 296 296 297 298 297 297 298 297 297 297 294 292 291 290 289 288 288 287 286 285 285 285 285 285 284
276 274 274 273 272 276 283 285 288 275 276 288 290 290 290 286 288 293 295 295 296 296 295 296 296 295 294 296 296 293 292 291 291 290 287 286 286 286 286 286 285 285 284 283
276 271 268 274 267 266 287 286 280 285 289 289 290 291 291 293 294 295 293 295 294 293 294 295 294 292 292 292 292 290 292 291 290 288 286 286 286 286 285 285 284 284 283 282
274 280 278 278 275 284 287 286 289 291 289 289 289 291 292 292 292 292 290 292 293 292 291 295 293 292 291 290 288 288 287 288 287 286 285 285 285 285 285 284 283 283 282 281
279 284 280 280 284 284 285 289 292 291 290 291 292 292 292 291 292 292 294 294 292 293 293 294 293 290 288 288 287 287 288 287 286 285 285 285 284 284 284 284 283 282 280 280
279 282 279 280 282 285 286 288 289 290 291 291 293 292 290 293 292 292 293 292 291 293 293 294 292 290 287 286 285 287 287 287 285 284 284 283 283 283 283 283 282 281 281 281
281 279 276 276 283 284 284 287 290 288 288 289 290 289 291 293 292 293 292 292 291 291 294 293 291 289 286 285 285 286 287 286 284 283 283 282 282 282 281 280 280 283 282 283

GFSCGP_sfc_thetae_198.txt.gz
Theta_e
298 292 290 291 293 295 294 292 291 294 298 295 294 293 296 299 299 298 299 300 301 302 306 306 309 329 330 331 332 332 330 330 328 318 314 313 313 313 313 312 312 310 309 308
294 291 296 298 296 295 294 292 292 294 297 296 294 293 294 297 298 300 301 300 301 302 304 305 306 305 320 329 331 332 331 328 326 322 319 315 314 311 312 310 309 308 307 306
292 294 299 297 295 294 293 291 291 290 292 292 292 292 292 296 298 299 301 301 300 300 300 304 305 306 306 311 329 331 330 327 326 324 319 312 309 307 306 307 307 306 306 306
292 297 296 294 293 293 289 293 291 289 286 283 291 283 290 295 295 298 298 297 298 299 301 302 304 309 313 316 320 331 330 325 324 322 316 312 311 308 306 309 306 305 305 305
290 292 291 290 292 294 290 293 290 289 285 282 286 283 284 293 292 294 298 299 298 299 299 300 302 304 313 316 320 325 325 323 322 318 314 312 312 309 307 307 306 305 302 303
291 295 293 292 294 294 294 290 289 287 284 279 286 284 282 286 291 295 296 297 298 299 300 302 303 304 305 313 316 315 316 316 315 316 313 313 312 307 306 306 304 303 303 303
289 290 293 295 289 292 290 286 279 278 277 277 287 284 284 292 294 295 295 296 296 298 299 299 300 301 304 305 313 316 316 313 315 315 313 314 310 308 306 305 304 302 302 302
283 281 289 294 291 289 289 287 281 276 276 279 287 281 285 294 295 297 297 296 297 297 298 299 299 301 301 303 305 309 312 314 316 316 315 315 310 309 307 306 304 303 303 301
282 283 291 292 292 292 289 285 289 283 283 278 281 284 290 293 293 294 295 296 296 296 297 298 299 300 300 301 301 302 307 309 308 311 312 312 311 307 306 305 304 302 301 298
285 280 288 288 292 291 288 290 282 284 276 274 278 279 281 287 289 292 293 294 297 299 299 299 298 299 300 298 299 299 301 303 307 308 307 307 308 308 305 303 300 299 297 296
286 282 282 287 286 283 284 283 284 285 282 273 273 277 288 288 291 291 292 294 295 297 298 299 298 300 300 298 296 295 296 298 299 301 303 304 302 300 301 299 298 296 295 295
288 283 277 281 288 289 287 284 283 274 270 276 273 277 287 287 291 292 292 295 295 297 297 298 299 300 300 297 296 296 295 296 297 298 298 299 299 300 299 297 297 296 294 294
287 280 275 277 282 286 283 284 284 282 280 274 271 274 287 287 287 290 290 292 293 296 296 297 298 298 299 299 298 296 296 295 296 297 296 295 295 296 296 295 294 294 293 292
289 282 279 274 278 281 279 281 282 280 272 275 275 277 281 284 284 286 287 289 292 293 295 297 297 295 299 297 297 296 294 294 295 296 294 293 293 292 292 292 291 290 290 290
285 278 281 281 282 281 280 279 280 278 279 275 277 277 281 283 284 286 289 290 291 293 294 295 297 297 298 297 296 296 293 293 293 293 293 292 292 291 290 289 289 289 289 288
283 276 279 277 280 279 277 278 279 279 279 278 278 277 283 285 286 287 289 290 290 292 294 296 296 298 297 297 296 296 294 292 292 291 291 291 290 290 289 288 288 287 287 286
280 278 276 271 277 276 269 276 277 278 279 278 274 279 283 283 285 287 289 291 292 292 294 295 295 296 298 297 297 296 294 293 291 291 291 290 290 288 288 288 287 286 286 286
278 277 274 268 273 257 274 280 280 279 280 281 281 282 284 285 287 291 292 292 293 294 296 298 299 299 299 299 298 297 294 293 291 291 290 290 288 287 287 287 286 286 286 285
281 277 270 265 269 273 277 280 279 278 278 284 283 286 287 290 291 289 294 296 296 295 296 296 298 300 301 300 298 295 293 292 292 290 289 288 288 287 287 286 286 286 285 284
280 279 274 270 269 265 275 282 286 285 275 285 286 286 287 289 281 284 291 295 296 296 297 297 298 299 300 298 296 293 291 292 291 290 289 289 288 287 286 286 285 285 285 283
275 272 271 272 270 275 283 285 287 273 275 286 287 287 287 284 287 291 294 294 294 296 297 296 297 295 295 296 295 291 290 291 291 290 288 287 287 287 287 286 285 285 284 282
275 269 266 269 265 268 286 285 279 282 286 287 288 288 289 290 291 293 294 293 295 294 293 295 293 291 291 291 292 287 290 291 291 289 287 287 286 286 286 285 285 284 283 281
271 276 273 277 275 284 286 286 288 288 287 288 288 289 290 290 291 292 293 293 295 294 293 293 291 290 289 289 289 291 288 289 288 286 286 286 286 285 285 284 283 282 282 280
278 282 276 277 281 284 286 288 289 290 289 290 290 289 291 290 292 291 292 294 294 295 294 293 291 289 287 287 286 289 288 288 287 286 285 285 285 284 284 284 283 282 281 279
278 279 277 278 281 283 285 287 288 288 290 290 291 290 290 290 291 292 291 291 292 293 292 292 290 288 286 285 284 286 288 288 286 285 285 284 284 283 283 283 283 282 282 282
279 278 275 274 281 281 283 286 290 288 288 288 288 288 289 288 289 291 291 293 293 291 293 292 290 288 285 284 286 286 287 287 285 283 283 282 282 282 282 281 280 283 282 284

GFSCGP_sfc_thetae_204.txt.gz
Theta_e
295 290 289 290 291 290 289 288 287 289 293 291 291 290 293 295 294 293 294 296 297 298 301 304 307 312 315 316 323 326 327 330 333 328 325 323 321 320 318 319 319 317 317 315
292 289 295 294 293 291 290 288 288 291 294 292 290 289 293 294 293 294 295 295 296 297 299 302 303 304 309 313 315 316 325 327 331 332 329 327 324 321 317 316 315 317 316 314
290 292 297 294 292 290 290 288 289 289 291 289 287 286 288 292 295 297 296 296 296 296 296 298 300 301 303 307 311 315 315 320 330 332 331 316 313 310 309 310 313 313 315 313
291 295 293 292 291 292 288 292 292 290 285 282 287 280 286 290 292 294 294 294 294 295 296 297 299 300 301 304 308 313 316 319 328 332 330 322 321 317 313 315 313 312 313 311
291 290 291 290 292 293 290 293 290 289 283 280 282 281 283 289 289 291 293 295 294 295 296 297 298 298 299 302 303 308 313 315 319 326 329 322 318 322 313 312 312 311 310 310
293 294 293 292 294 294 292 288 286 283 282 277 283 283 281 285 289 292 294 294 295 296 297 298 298 299 299 300 300 303 307 311 315 318 318 318 318 317 310 311 310 310 310 308
296 295 291 294 290 291 288 284 278 277 276 277 284 282 284 290 292 293 293 293 294 295 295 295 296 296 298 298 299 301 303 306 309 313 314 314 314 311 310 310 310 309 308 306
288 284 293 293 294 290 287 287 279 275 275 277 284 279 282 291 294 294 295 294 294 294 295 295 295 296 296 298 298 298 300 302 305 306 309 311 314 311 310 310 310 309 307 303
282 283 287 289 290 294 288 284 289 282 281 278 280 281 287 290 291 292 291 293 292 293 294 295 297 297 297 297 298 297 297 299 301 302 306 307 310 308 309 309 308 304 302 301
287 280 285 286 288 289 290 291 284 283 278 276 277 279 280 285 287 288 288 289 291 293 293 294 295 296 296 297 297 296 296 296 297 298 304 305 306 309 307 307 305 304 303 303
286 284 282 285 283 282 284 281 283 284 280 274 274 279 284 287 286 285 286 289 288 289 291 292 293 294 295 297 297 296 295 294 294 295 300 302 301 304 306 305 305 303 301 299
287 285 279 282 286 287 284 283 283 277 272 275 273 276 286 285 285 285 284 286 286 288 288 290 293 294 295 295 296 295 294 293 293 295 298 299 299 299 300 299 300 300 299 298
286 282 278 279 282 284 281 282 282 280 278 273 272 275 285 284 283 283 283 284 285 286 287 288 289 290 292 294 295 296 294 293 294 295 294 296 296 295 295 295 296 296 296 296
290 283 281 278 279 282 279 280 282 281 275 277 278 280 282 281 281 282 282 283 285 286 287 287 288 289 292 293 294 295 295 293 293 295 293 294 293 293 293 293 293 293 294 294
286 280 281 281 281 281 280 279 279 278 279 276 277 277 280 281 281 282 283 284 285 286 287 288 289 291 293 294 295 295 293 292 292 293 293 292 291 291 291 291 291 292 292 292
284 278 280 278 281 280 277 279 279 279 280 279 279 278 283 283 282 281 283 284 285 287 288 291 293 293 294 295 295 293 291 291 292 292 291 291 290 290 289 289 289 289 289 289
281 279 278 274 277 276 271 276 278 280 280 280 276 279 280 280 281 283 284 287 288 290 291 292 293 294 295 297 295 291 292 291 291 292 291 290 290 289 288 289 288 287 287 287
280 279 278 272 274 265 276 279 279 279 280 280 279 279 281 281 283 287 289 289 289 290 291 293 294 295 296 294 293 293 292 292 292 291 291 290 289 288 288 288 287 286 286 285
282 278 272 270 269 274 275 277 277 276 276 281 280 281 283 286 287 286 290 290 289 291 293 293 294 295 295 294 295 294 293 290 291 290 290 289 289 287 287 286 286 286 285 284
281 281 276 271 265 265 274 280 284 283 274 283 283 283 284 284 278 281 287 289 291 292 293 294 295 295 298 297 294 292 292 290 290 291 290 289 288 287 286 286 285 286 285 283
275 275 270 271 269 273 279 282 285 273 273 282 284 284 284 281 283 286 289 290 291 292 293 294 294 294 295 295 293 290 290 292 291 290 288 287 287 287 286 286 286 285 283 283
274 270 268 269 262 264 283 281 277 280 281 283 283 284 285 286 287 288 289 289 290 291 292 293 293 293 292 291 290 287 290 292 290 290 288 287 287 286 286 285 285 284 282 281
272 275 273 271 271 279 283 281 284 284 283 283 284 285 286 286 286 288 288 289 290 291 291 293 292 291 290 289 288 286 290 291 290 288 287 286 286 286 286 285 284 282 281 280
277 280 275 276 278 279 282 283 285 285 284 285 287 287 287 286 288 287 287 288 289 290 291 292 293 291 288 288 290 287 290 290 289 287 286 286 285 285 285 285 284 282 281 280
276 278 277 276 278 279 281 281 282 283 285 285 286 287 288 288 288 288 287 288 289 289 290 292 291 290 288 285 286 290 289 289 287 286 285 285 285 285 284 284 283 281 280 282
278 277 275 272 279 279 278 281 284 283 284 285 284 284 287 287 287 286 285 286 288 289 290 291 291 290 287 284 285 286 288 288 286 285 285 284 284 284 283 282 281 284 281 284

GFSCGP_sfc_thetae_210.txt.gz
Theta_e
305 301 299 300 302 304 300 299 298 301 303 301 302 303 306 309 308 307 309 310 310 311 313 314 316 319 322 328 331 333 333 336 337 337 333 332 331 332 333 336 338 339 338 337
300 298 305 305 303 301 300 298 298 302 303 302 302 302 306 308 309 309 308 309 309 310 309 310 312 313 315 317 320 322 327 332 335 336 337 333 332 333 332 333 332 333 333 332
301 303 305 301 299 298 299 298 298 299 302 303 301 300 304 304 304 306 308 309 310 309 307 307 308 310 312 313 315 316 319 326 333 335 338 333 329 326 330 331 331 331 331 330
301 305 301 299 298 299 297 302 300 299 298 296 300 293 301 302 302 304 305 308 308 306 306 306 307 308 310 311 314 314 315 317 321 332 333 335 331 329 332 334 335 333 331 331
299 299 299 298 299 300 299 302 300 300 298 299 299 295 300 304 299 302 305 306 307 306 305 305 305 306 307 311 312 314 313 313 316 318 324 327 328 330 331 331 332 332 333 329
301 304 302 302 302 301 302 299 297 297 297 291 296 296 297 301 301 302 305 306 305 304 303 302 303 304 305 308 309 312 312 311 314 315 317 318 320 323 323 324 326 327 329 330
298 298 301 301 297 300 300 297 291 289 288 289 297 295 298 299 302 304 303 304 303 301 299 299 299 300 302 304 306 308 308 308 311 313 314 315 316 318 319 321 322 322 322 322
293 291 299 300 299 295 295 296 291 285 288 293 294 289 297 301 304 306 305 304 300 298 298 298 299 300 301 302 304 305 305 305 307 310 312 314 316 315 316 318 320 321 321 322
295 294 300 303 302 302 295 293 299 292 293 289 294 295 297 299 298 300 300 299 297 296 296 298 299 300 301 302 303 304 306 306 307 308 310 312 314 315 315 316 318 319 320 320
301 293 295 297 300 303 298 300 288 289 283 283 292 294 296 294 295 297 296 296 295 295 296 298 299 299 301 302 303 305 305 305 306 308 309 310 312 313 314 315 315 315 316 317
299 297 289 293 294 297 297 294 294 294 292 288 288 293 297 298 298 297 296 294 294 295 296 297 299 300 301 302 303 304 305 305 307 308 309 310 311 313 313 313 314 314 313 312
300 297 291 290 293 295 300 297 297 290 287 291 292 292 298 302 301 299 294 292 294 295 296 298 299 300 301 302 303 303 305 305 306 307 308 309 310 311 312 311 311 310 307 306
298 294 287 288 290 292 290 293 298 297 294 290 287 290 297 299 297 294 293 293 293 294 296 297 299 300 300 301 303 304 305 306 307 308 308 308 310 310 309 307 307 306 307 305
300 296 292 289 291 293 288 290 292 295 289 289 291 292 290 291 291 292 293 293 294 294 295 297 299 300 301 302 303 304 306 308 309 309 307 307 307 304 303 302 302 302 302 302
296 290 293 293 291 290 291 290 290 290 292 289 292 292 295 293 294 295 292 292 291 293 295 296 298 299 300 302 303 304 306 308 309 306 306 303 300 300 300 299 298 299 299 297
294 288 291 288 291 287 286 289 290 291 292 293 293 293 298 298 294 291 290 291 291 293 294 296 297 298 298 300 302 304 306 307 307 305 300 299 298 298 297 296 295 296 294 294
287 287 285 283 287 285 282 287 288 290 291 291 288 293 296 291 290 290 291 292 292 293 294 295 296 297 298 300 303 304 305 306 303 299 298 297 297 296 295 294 294 291 291 292
286 285 285 281 283 276 286 287 292 289 290 292 291 293 292 292 291 292 294 293 293 294 294 295 297 298 299 301 302 305 305 302 298 298 297 297 297 295 293 292 291 290 290 289
290 286 280 278 279 286 285 282 287 287 287 292 291 293 293 291 291 292 294 293 294 295 296 296 298 299 300 300 302 303 303 299 297 296 296 296 297 294 294 292 291 290 288 288
289 288 284 281 279 277 284 286 289 290 282 289 293 291 289 290 285 289 294 294 294 295 296 296 298 298 299 300 302 300 301 298 295 294 296 297 294 294 293 292 291 290 289 287
281 282 280 279 279 282 285 286 288 278 283 289 290 290 290 289 291 294 295 295 296 296 296 298 298 298 298 300 301 299 297 296 298 297 298 294 292 293 293 292 291 291 289 289
280 279 279 279 277 276 287 286 281 288 291 291 291 292 292 292 293 293 294 294 295 296 296 297 297 298 299 300 299 296 296 297 297 296 293 291 292 290 290 290 289 290 289 288
279 284 281 283 283 288 290 290 292 292 291 291 291 292 292 291 291 292 293 293 295 295 296 297 297 298 299 300 298 296 297 296 294 291 290 290 290 289 289 288 288 288 288 287
282 285 282 281 283 286 289 291 293 292 291 291 291 290 291 290 291 292 292 292 293 295 295 296 296 296 296 299 299 298 297 294 294 291 289 289 288 287 288 290 290 290 287 287
283 283 281 281 284 286 289 291 292 292 290 289 290 291 290 291 291 291 291 292 293 294 295 296 295 296 296 298 299 299 297 296 293 292 289 289 289 289 288 289 288 288 289 289
284 283 282 281 286 286 287 290 291 289 288 289 289 290 291 291 291 292 292 293 294 294 295 295 296 296 296 297 298 298 298 297 294 291 291 289 289 288 288 287 285 285 285 285

GFSCGP_sfc_thetae_213.txt.gz
Theta_e
309 304 302 305 306 306 305 303 302 305 308 304 304 305 308 311 311 311 311 313 314 315 317 318 321 324 328 332 334 335 337 339 340 339 337 335 334 337 338 339 341 340 340 339
305 300 307 308 308 305 304 302 301 304 307 306 304 304 308 310 311 312 312 312 314 314 313 314 316 318 319 321 323 326 330 332 334 337 338 337 337 336 336 337 337 337 336 336
304 305 308 307 305 303 303 301 301 300 305 305 303 302 305 310 312 313 313 314 314 313 311 312 313 314 315 316 317 317 319 322 330 334 337 337 336 335 333 334 334 336 336 337
305 308 306 304 304 304 300 305 303 302 301 296 306 296 304 307 307 308 310 312 313 312 311 311 311 311 312 313 316 315 315 315 317 322 325 329 327 324 327 329 334 336 337 334
301 303 303 302 304 305 302 307 305 303 301 301 301 298 302 307 303 305 308 310 312 311 310 309 310 310 311 312 313 314 313 314 315 316 318 317 318 319 320 323 330 332 333 333
303 309 306 305 306 306 306 304 303 302 300 293 299 299 299 303 306 306 308 310 310 310 309 308 308 308 308 310 311 311 310 310 312 314 315 315 316 316 316 318 320 322 327 331
300 301 305 304 302 306 304 300 292 290 291 291 301 298 301 307 307 309 307 308 309 308 307 304 304 304 304 305 306 308 307 307 309 311 312 313 314 316 315 315 316 317 319 323
294 292 300 304 302 299 299 297 293 286 288 293 301 295 302 306 307 310 310 309 308 305 304 303 303 303 303 304 304 306 307 307 308 309 310 312 313 312 314 314 315 316 317 319
295 295 304 304 304 303 299 295 300 294 295 291 296 300 301 303 305 307 307 308 304 302 302 302 302 303 304 304 303 305 306 307 308 308 310 311 311 311 311 314 317 316 317 317
301 293 302 303 306 305 301 303 293 292 285 285 293 295 296 298 301 304 305 305 303 301 301 301 302 302 303 304 305 306 307 306 307 309 309 309 311 311 312 313 314 316 317 317
302 299 296 301 299 298 297 296 297 297 295 289 289 294 301 302 302 302 303 303 301 300 301 301 302 302 303 304 305 306 306 306 307 309 309 311 312 312 313 313 314 315 316 313
303 298 292 295 303 304 302 299 299 292 290 295 295 296 303 305 304 304 302 301 300 301 301 301 302 302 302 303 304 304 306 307 308 309 309 310 312 312 312 313 313 314 312 311
300 295 287 290 294 297 295 301 300 299 299 294 289 294 302 305 303 303 301 298 298 299 300 301 301 301 302 303 304 304 305 306 308 309 310 311 311 311 311 311 308 308 307 307
303 298 296 290 293 297 293 296 300 297 290 292 295 296 298 301 301 302 299 299 298 298 299 300 300 301 302 303 304 304 305 307 308 309 310 310 310 310 307 305 305 305 305 304
302 295 297 298 299 297 295 294 295 294 296 291 296 296 297 300 301 300 299 298 298 297 297 298 298 301 301 301 302 304 305 307 308 308 309 309 307 305 302 302 301 302 301 299
299 292 294 292 296 295 292 295 296 295 295 295 296 296 302 303 302 299 299 296 295 296 296 297 298 298 298 299 301 302 305 306 308 307 307 305 301 300 300 300 299 300 298 297
292 292 288 286 293 291 285 291 293 294 296 295 291 297 301 300 300 300 297 296 295 296 296 297 297 298 299 300 301 302 304 306 306 304 301 299 300 299 299 299 299 298 296 296
291 290 288 286 285 279 293 296 296 295 296 297 297 299 300 300 300 299 297 296 296 296 297 297 297 298 299 300 301 303 304 305 303 300 300 299 299 298 298 298 297 296 294 292
294 290 285 282 282 289 291 288 292 293 293 298 297 298 297 296 296 294 297 298 297 297 298 298 299 299 299 299 301 301 302 303 301 299 299 299 299 298 296 296 296 294 291 290
291 292 288 283 281 280 291 295 296 297 287 297 298 297 297 295 288 293 298 296 296 297 298 297 298 298 299 300 301 300 300 301 301 299 298 297 297 295 295 295 294 294 292 289
284 285 283 283 283 287 290 292 295 284 287 296 298 298 298 296 295 296 297 297 298 297 297 299 299 298 299 300 301 298 299 299 302 300 297 296 293 291 295 295 294 292 290 289
284 283 282 285 282 281 291 289 286 292 294 293 295 295 294 295 296 296 296 296 296 296 297 298 298 298 299 300 300 298 298 300 301 300 297 293 291 291 291 290 290 290 290 288
285 290 287 288 287 292 292 289 293 295 293 293 294 294 295 294 294 294 294 295 295 296 296 298 297 297 299 299 300 299 299 300 299 297 291 291 291 289 289 289 288 289 290 290
290 293 289 286 287 289 290 292 293 294 293 294 294 293 293 292 293 293 294 294 294 295 295 296 296 296 297 298 299 300 300 300 298 294 293 290 289 288 288 289 289 290 290 289
289 289 286 287 288 289 291 292 293 293 294 293 293 292 292 292 291 292 292 293 293 294 295 296 296 296 296 297 298 299 300 300 298 295 292 289 289 289 288 289 290 290 289 289
288 286 285 284 289 288 289 293 294 292 291 291 291 291 292 292 291 292 293 294 294 294 295 296 296 296 296 297 297 298 300 300 297 294 291 290 290 290 290 288 286 285 286 286

GFSCGP_sfc_thetae_216.txt.gz
Theta_e
308 302 299 302 304 304 304 302 301 305 308 305 304 304 306 310 310 310 310 311 313 315 318 320 325 331 333 337 338 340 341 341 339 338 336 335 334 335 336 337 337 338 339 339
303 299 305 306 306 304 303 301 301 305 308 305 304 302 306 308 310 310 310 311 312 314 314 316 319 322 324 326 329 331 332 336 339 339 337 336 335 335 335 336 336 336 335 335
300 303 306 305 304 302 303 301 301 301 305 306 304 301 303 307 310 312 312 313 313 314 312 313 314 317 319 319 320 320 321 321 322 330 337 335 334 333 331 332 333 334 335 336
301 305 304 303 302 303 299 305 304 302 301 295 304 293 301 305 306 308 311 312 313 314 313 312 312 313 315 316 317 316 316 315 317 319 321 322 321 320 323 325 333 334 335 334
299 302 302 302 303 305 302 307 304 303 300 299 299 296 300 306 304 307 310 311 313 313 311 310 311 311 312 315 315 315 315 314 315 317 317 315 316 316 317 318 320 324 328 331
303 307 305 305 307 307 307 304 303 302 300 292 298 297 298 302 305 307 309 310 312 311 311 311 311 310 309 314 314 314 311 311 313 313 314 314 313 314 313 314 314 316 319 325
299 300 304 306 302 305 304 299 291 289 290 289 299 296 299 305 308 309 307 308 310 310 310 308 307 306 306 308 310 310 308 307 309 310 310 311 312 313 312 313 312 313 314 316
292 291 300 304 303 300 301 299 292 285 287 291 299 293 299 308 309 312 310 310 310 308 307 306 305 306 305 307 308 308 307 307 308 309 310 311 312 309 310 310 312 313 313 314
295 293 303 303 305 303 299 296 302 293 295 290 294 299 303 305 307 308 308 308 307 306 304 304 304 306 306 306 307 307 307 307 307 308 309 309 310 310 310 311 312 313 314 314
300 293 301 303 305 304 301 303 293 294 284 283 290 293 294 298 302 305 305 305 305 304 303 303 303 305 305 306 306 307 306 306 307 308 309 308 309 310 311 311 311 312 313 314
302 297 297 302 299 297 297 296 297 297 293 286 285 290 302 302 303 304 306 305 303 302 302 302 303 304 305 306 306 305 305 305 306 307 309 309 310 311 312 311 311 311 312 311
303 298 292 296 304 304 302 298 298 290 289 292 292 293 305 307 306 307 306 306 304 302 302 302 303 304 304 304 304 304 305 306 307 308 309 309 311 311 310 310 311 309 307 308
302 294 287 291 296 301 299 300 300 299 297 292 288 292 304 306 305 307 306 306 302 302 302 302 303 303 303 303 304 304 305 306 307 307 308 309 310 310 309 308 307 306 305 305
303 295 292 289 293 295 294 297 299 297 291 292 294 296 299 302 302 304 304 303 301 300 300 301 302 303 303 304 304 304 305 306 306 306 307 307 308 308 306 305 304 303 303 302
301 292 296 297 297 297 295 295 297 296 297 291 295 296 300 302 303 303 304 300 298 298 298 299 300 302 303 302 302 303 304 305 306 306 306 306 305 305 303 301 301 301 300 299
302 293 295 293 298 296 292 296 297 299 298 298 298 297 304 306 306 304 301 299 298 298 298 299 299 299 299 300 300 302 302 304 307 305 304 304 303 301 300 300 299 299 298 297
297 291 292 288 295 291 287 293 296 296 298 298 294 300 303 303 303 304 302 300 299 298 298 298 298 298 299 300 301 300 302 304 305 304 302 301 301 299 299 299 299 297 294 293
296 292 290 286 288 281 294 300 299 298 298 300 299 300 301 302 304 304 303 301 298 298 298 298 298 298 299 301 300 302 302 302 303 302 301 300 300 299 298 297 296 294 292 292
299 291 285 284 284 289 292 295 292 293 293 299 298 300 301 300 302 302 302 300 299 299 299 299 298 299 300 299 301 300 299 300 301 301 300 299 299 297 296 294 293 292 291 289
296 294 289 285 282 280 292 297 297 298 287 299 299 299 300 296 291 294 297 298 298 299 299 298 298 299 299 300 301 299 298 298 299 301 299 298 296 293 292 292 292 291 291 288
285 285 285 284 283 287 295 295 298 285 288 299 300 300 299 293 295 298 298 298 298 297 297 298 298 297 298 299 300 298 297 297 300 301 298 296 294 292 292 292 292 291 289 287
285 283 283 285 283 281 295 294 289 294 295 297 300 301 300 297 296 296 296 296 296 296 296 297 297 297 298 299 299 298 297 299 300 300 298 294 292 291 291 290 289 289 288 287
286 291 287 289 289 295 294 295 296 297 294 297 296 297 297 295 295 296 296 296 295 295 295 296 296 297 298 298 298 297 299 299 299 297 293 292 291 289 289 288 288 288 287 287
293 296 291 290 291 292 292 295 296 296 295 296 296 296 296 294 295 295 294 294 294 295 295 295 295 295 296 298 298 298 299 300 299 295 292 291 289 287 288 288 288 288 287 287
292 293 290 289 292 292 292 293 294 294 296 295 295 295 294 294 293 293 293 292 293 294 294 294 294 295 296 297 297 298 298 299 298 295 291 289 289 287 287 287 288 287 287 288
293 290 288 287 292 290 291 294 295 294 293 293 292 291 292 292 291 292 292 292 293 293 294 294 295 295 296 296 296 297 298 298 297 294 291 290 289 288 288 287 285 286 286 287